Location: Rogalle
(42.8890°N, 1.1916°E)
Time: 21:32:09
(UTC+00:00)

Cosmos 1743 - Pass Details

Date: 13 December 2025
Orbit: 399 x 406 km, 82.5° (Epoch: 21 January)

Event Time Altitude Azimuth Distance (km) Brightness Sun altitude
Rises 16:58:04 0° 348° (NNW) 2,380 5.9 -6.8°
Reaches altitude 10° 17:00:08 10° 344° (NNW) 1,507 5.0 -7.1°
Maximum altitude 17:03:21 58° 265° (W) 491 3.0 -7.6°
Drops below altitude 10° 17:06:31 10° 185° (S) 1,480 5.4 -8.2°
Sets 17:08:32 0° 181° (S) 2,332 6.4 -8.5°
